Showing default

GOES 18, 51850

Orbit data source: Space-Track

GOES 18, 51850 is a payload satellite owned by NOAA (US) in GEO that was launched on Tue, 01 Mar 2022 UTC via an ATLAS V 541 launch vehicle from the Air Force Eastern Test Range (AFETR). Payload-class satellites include a variety of spacecraft equipped with specific instruments for various scientific and technological missions. These include communications satellites like Starlink; space stations such as the ISS; scientific satellites like the Hubble; Earth observation satellites from companies like Planet Labs, Umbra, and HawkEye 360; GPS; miniature CubeSats for education and research; and military/defense satellites.

Loading next visibility...
Identifier
51850, 2022-021A
Orbit
GEO
Country
Flag of USUS
Related business
Manufacturer
LMCSS
Mission
Operational Civil Weather
Bus & Motor
A2100, LEROS-1C
Mass
5,209 kg wet, 2,857 kg dry
Launch date (UTC)
2022-03-01 (5 years ago)
Launch vehicle
ATLAS V 541
Launch site
Air Force Eastern Test Range (AFETR)
Object type
Payload
Rocket body
Debris
Shape & HBR
Box + 1 Pan + 1 Rod, 20.0 m
Radar Cross Section
37.561 m², Large (>1 m²)

Expand to show TLE details & history
Last TLE update: 9 hours ago

TLE from 9 hours ago
0 GOES 18
1 51850U 22021A   26254.30941918  .00000079  00000-0  00000-0 0  9996
2 51850   0.0402 311.6347 0000554 279.9932  93.1001  1.00272905  7453
Epoch: 2026-09-11T07:25Z
TLE epoch observation values (Epoch: 2026-09-11T07:25:33.817Z)
Latitude
0.00986°
Longitude
-136.98828°
Altitude
35,785.906 km
Speed
3.075 km/s
True Right ascension
21h 38m 56s
True Declination
0° 00' 35"
Sunlit
Object was in daylight at epoch
Visualization orbit readout
Latitude
Unknown
Longitude
Unknown
Altitude
Unknown
Speed
Unknown
Apparent Right ascension
Unknown
Apparent Declination
Unknown
Sunlit
N/A
Visualization observer readout
Local Sidereal Time
08:18:38
Azimuth
Unknown
Elevation
Unknown
Doppler factor
Unknown
Orbital elements
Apogee altitude
35,789.687 km
Perigee altitude
35,785.015 km
Semi-major axis
42,165.488 km
Eccentricity
0.00006
Inclination
0.0402°
RAAN
311.6347°
Arg. of periapsis
279.9932°
True anomaly
93.10644°
Mean anomaly
93.1001°
Eccentric anomaly
93.10327°
Mean motion
0.25067 °/min
Orbital period
1,436.13 mins
BSTAR
0
Loading maneuver chart data...
Computing Atmospheric mass density...
Loading historical data...
Loading historical data...
Loading historical data...
Loading historical data...
Loading historical data...
Loading historical data...
Loading historical data...
Other satellites on launch #21 in the year 2022 (2022-03-01 UTC)

Documentation

Showing up to 5 results
|